Flag for Germany Weather past 2 weeks in Waren (Müritz), Mecklenburg-Western Pomerania, Germany

Now
73 °F

Passing clouds.


Feels Like: 77 °F
Forecast: 56 / 80 °F
Wind: 10 mph from Southwest

Location: Laage

Current Time: Jul 31, 2014 at 3:38:31 PM

Latest Report: Jul 31, 2014 at 2:20 PM


Visibility: N/A

Pressure: 29.92 "Hg

Humidity: 53%

Dew point: 55 °F

Location of Waren (Müritz)Location

Historic Weather in Waren (Müritz) — Graph

°F

Waren (Müritz) temperature yesterday

Maximum temperature yesterday: 72 °F (at 12:20 AM)
Minimum temperature yesterday: 63 °F (at 11:20 PM)
Average temperature yesterday: 67 °F

Past Weeks' High & Low Weather Summary

 TemperatureHumidityPressure
High84 °F (Jul 19, 2:20 PM)100% (Jul 22, 3:20 AM)30.18 "Hg (Jul 22, 3:20 AM)
Low55 °F (Jul 17, 4:20 AM)35% (Jul 19, 3:20 PM)29.71 "Hg (Jul 30, 5:20 AM)
Average70 °F72%29.99 "Hg
* Reported Jul 16 2:20 PM — Jul 31 2:20 PM, Waren (Müritz), Weather by CustomWeather, © 2014

Note: Actual official high and low records may vary slightly from our data, if they occured in-between our weather recording intervals... More about our weather records

Advertising

Waren (Müritz) weather history for previous 24 hours

 ConditionsComfort  
Time TempWeatherWind HumidityBarometerVisibility
2:20 PM
Jul 31
73 °FPassing clouds.10 mph53%29.92 "HgN/A
1:20 PM72 °FPassing clouds.10 mph57%29.95 "HgN/A
12:20 PM72 °FScattered clouds.8 mph57%29.95 "HgN/A
11:20 AM68 °FScattered clouds.13 mph69%29.95 "HgN/A
10:20 AM68 °FPassing clouds.13 mph69%29.95 "HgN/A
9:20 AM66 °FPassing clouds.10 mph78%29.92 "HgN/A
8:20 AM64 °FPassing clouds.9 mph83%29.92 "HgN/A
7:20 AM61 °FPassing clouds.7 mph94%29.92 "HgN/A
6:20 AM59 °FPassing clouds.6 mph94%29.89 "HgN/A
5:20 AM59 °FPassing clouds.5 mph94%29.89 "HgN/A
4:20 AM59 °FPassing clouds.5 mph94%29.89 "HgN/A
3:20 AM59 °FPassing clouds.5 mph94%29.86 "HgN/A
2:20 AM59 °FPassing clouds.7 mph94%29.86 "HgN/A
1:20 AM61 °FPassing clouds.7 mph94%29.86 "HgN/A
12:20 AM63 °FMild.10 mph88%29.86 "HgN/A
11:20 PM
Jul 30
63 °FPassing clouds.9 mph88%29.83 "HgN/A
10:20 PM66 °FPassing clouds.10 mph78%29.83 "HgN/A
9:20 PM66 °FPartly sunny.5 mph88%29.83 "HgN/A
8:20 PM68 °FPartly sunny.6 mph88%29.80 "HgN/A
7:20 PM68 °FPartly sunny.3 mph88%29.80 "HgN/A
6:20 PM68 °FRain. Partly sunny.12 mph94%29.80 "Hg5 mi
5:45 PM68 °FLight rain. Broken clouds.8 mph94%29.80 "HgN/A
5:20 PM70 °FLight rain. Partly sunny.9 mph88%29.80 "Hg6 mi
4:20 PM68 °FBroken clouds.10 mph88%29.77 "HgN/A
3:20 PM68 °FLight rain. Broken clouds.9 mph88%29.80 "HgN/A
Weather by CustomWeather, © 2014

See weather overviewHow to use our weather pages